When you browse on this site, cookies collect data to enhance your experience and personalize the content and advertising you see.
Visit our Privacy Policy to learn more. By continuing to use the site, you agree to this use of cookies and data.
  • En España
  • Lista de países
  • Para 7 días
  • Temperatura del agua
  • El tiempo en el mapa
  • Informadores
  • user-avatar
    Iniciar sesión

    Tiempo cada hora Bregenz

    Hoy, 28 Marzo, Sábado

    Tiempo Temperatura Precipitaciones Viento Presión Humedad
    00:00 +1°C° 0 mm 1 mps 643 mmHg 88%
    01:00 +1°C° 0 mm 1 mps 643 mmHg 88%
    02:00 0°C° 0 mm 1 mps 643 mmHg 88%
    03:00 0°C° 0 mm 1 mps 643 mmHg 88%
    04:00 -1°C° 0 mm 1 mps 642 mmHg 88%
    05:00 0°C° 0 mm 1 mps 643 mmHg 86%
    06:00 +1°C° 0 mm 1 mps 643 mmHg 84%
    07:00 +1°C° 0 mm 1 mps 644 mmHg 83%
    08:00 +2°C° 0.1 mm 1 mps 644 mmHg 82%
    09:00 +3°C° 0.1 mm 1 mps 644 mmHg 82%
    10:00 +3°C° 0.1 mm 0 mps 644 mmHg 81%
    11:00 +5°C° 0 mm 1 mps 644 mmHg 80%
    12:00 +6°C° 0 mm 1 mps 644 mmHg 79%
    13:00 +7°C° 0 mm 2 mps 645 mmHg 75%
    14:00 +8°C° 0.1 mm 1 mps 644 mmHg 76%
    15:00 +8°C° 0.1 mm 1 mps 644 mmHg 77%
    16:00 +8°C° 0.1 mm 1 mps 644 mmHg 77%
    17:00 +6°C° 0.2 mm 1 mps 644 mmHg 82%
    18:00 +5°C° 0.2 mm 1 mps 643 mmHg 86%
    19:00 +2°C° 0.2 mm 0 mps 643 mmHg 91%
    20:00 +2°C° 0 mm 0 mps 643 mmHg 91%
    21:00 +2°C° 0 mm 1 mps 644 mmHg 91%
    22:00 +2°C° 0 mm 1 mps 644 mmHg 92%
    23:00 +1°C° 0 mm 1 mps 644 mmHg 92%

    Mañana, 29 Marzo, Domingo

    Tiempo Temperatura Precipitaciones Viento Presión Humedad
    00:00 +1°C° 0 mm 1 mps 644 mmHg 91%
    01:00 0°C° 0 mm 0 mps 643 mmHg 91%
    02:00 0°C° 0 mm 0 mps 643 mmHg 92%
    03:00 0°C° 0 mm 0 mps 643 mmHg 92%
    04:00 -1°C° 0 mm 0 mps 643 mmHg 93%
    05:00 0°C° 0 mm 0 mps 643 mmHg 93%
    06:00 +1°C° 0 mm 1 mps 643 mmHg 94%
    07:00 +1°C° 0 mm 1 mps 643 mmHg 94%
    08:00 +1°C° 0.4 mm 1 mps 643 mmHg 94%
    09:00 +1°C° 0.4 mm 1 mps 643 mmHg 95%
    10:00 -1°C° 0.4 mm 2 mps 644 mmHg 95%
    11:00 -1°C° 0.3 mm 2 mps 643 mmHg 95%
    12:00 -1°C° 0.3 mm 2 mps 643 mmHg 96%
    13:00 -2°C° 0.3 mm 2 mps 642 mmHg 97%
    14:00 -2°C° 0.4 mm 2 mps 642 mmHg 97%
    15:00 -2°C° 0.4 mm 2 mps 642 mmHg 97%
    16:00 -4°C° 0.4 mm 3 mps 642 mmHg 98%
    17:00 -3°C° 0.8 mm 2 mps 642 mmHg 98%
    18:00 -4°C° 0.8 mm 2 mps 642 mmHg 98%
    19:00 -4°C° 0.8 mm 2 mps 642 mmHg 98%
    20:00 -4°C° 0.8 mm 2 mps 643 mmHg 98%
    21:00 -4°C° 0.8 mm 2 mps 643 mmHg 98%
    22:00 -4°C° 0.8 mm 2 mps 643 mmHg 98%
    23:00 -6°C° 0.7 mm 3 mps 643 mmHg 98%

    Pasado mañana, 30 Marzo, Lunes

    Tiempo Temperatura Precipitaciones Viento Presión Humedad
    00:00 -6°C° 0.7 mm 3 mps 643 mmHg 97%
    01:00 -7°C° 0.7 mm 4 mps 643 mmHg 97%
    02:00 -6°C° 0.6 mm 3 mps 643 mmHg 97%
    03:00 -7°C° 0.6 mm 3 mps 643 mmHg 96%
    04:00 -7°C° 0.6 mm 3 mps 643 mmHg 95%
    05:00 -7°C° 0.5 mm 3 mps 643 mmHg 95%
    06:00 -8°C° 0.5 mm 3 mps 643 mmHg 94%
    07:00 -8°C° 0.5 mm 3 mps 643 mmHg 94%
    08:00 -8°C° 0.3 mm 4 mps 643 mmHg 92%
    09:00 -8°C° 0.3 mm 4 mps 643 mmHg 91%
    10:00 -8°C° 0.3 mm 4 mps 643 mmHg 89%
    11:00 -7°C° 0.2 mm 4 mps 643 mmHg 88%
    12:00 -5°C° 0.2 mm 4 mps 643 mmHg 87%
    13:00 -5°C° 0.2 mm 4 mps 643 mmHg 86%
    14:00 -5°C° 0.2 mm 4 mps 643 mmHg 85%
    15:00 -5°C° 0.2 mm 4 mps 643 mmHg 85%
    16:00 -5°C° 0.2 mm 4 mps 643 mmHg 85%
    17:00 -7°C° 0.3 mm 4 mps 643 mmHg 86%
    18:00 -7°C° 0.3 mm 3 mps 643 mmHg 87%
    19:00 -8°C° 0.3 mm 3 mps 643 mmHg 88%
    20:00 -7°C° 0.1 mm 2 mps 643 mmHg 88%
    21:00 -8°C° 0.1 mm 2 mps 643 mmHg 88%
    22:00 -9°C° 0.1 mm 2 mps 643 mmHg 88%
    23:00 -10°C° 0 mm 2 mps 643 mmHg 88%

    31 Marzo, Martes

    Tiempo Temperatura Precipitaciones Viento Presión Humedad
    00:00 -10°C° 0 mm 2 mps 643 mmHg 87%
    01:00 -12°C° 0 mm 2 mps 642 mmHg 87%
    02:00 -10°C° 0 mm 1 mps 642 mmHg 87%
    03:00 -10°C° 0 mm 1 mps 642 mmHg 87%
    04:00 -10°C° 0 mm 1 mps 642 mmHg 87%
    05:00 -10°C° 0 mm 1 mps 642 mmHg 85%
    06:00 -10°C° 0 mm 1 mps 642 mmHg 84%
    07:00 -12°C° 0 mm 2 mps 643 mmHg 82%
    08:00 -9°C° 0 mm 2 mps 643 mmHg 77%
    09:00 -6°C° 0 mm 2 mps 644 mmHg 71%
    10:00 -5°C° 0 mm 3 mps 644 mmHg 66%
    11:00 -5°C° 0 mm 3 mps 644 mmHg 66%
    12:00 -4°C° 0 mm 3 mps 645 mmHg 65%
    13:00 -3°C° 0 mm 4 mps 645 mmHg 65%
    14:00 -3°C° 0 mm 4 mps 645 mmHg 66%
    15:00 -3°C° 0 mm 4 mps 645 mmHg 67%
    16:00 -2°C° 0 mm 3 mps 645 mmHg 68%
    17:00 -5°C° 0 mm 3 mps 644 mmHg 72%
    18:00 -6°C° 0 mm 2 mps 644 mmHg 77%
    19:00 -8°C° 0 mm 2 mps 644 mmHg 82%
    20:00 -8°C° 0 mm 2 mps 644 mmHg 83%
    21:00 -9°C° 0 mm 2 mps 644 mmHg 84%
    22:00 -9°C° 0 mm 2 mps 645 mmHg 84%
    23:00 -9°C° 0 mm 2 mps 645 mmHg 85%

    1 Abril, Miércoles

    Tiempo Temperatura Precipitaciones Viento Presión Humedad
    00:00 -10°C° 0 mm 2 mps 644 mmHg 85%
    01:00 -10°C° 0 mm 2 mps 644 mmHg 85%
    02:00 -9°C° 0 mm 1 mps 644 mmHg 85%
    03:00 -9°C° 0 mm 1 mps 644 mmHg 84%
    04:00 -9°C° 0 mm 1 mps 643 mmHg 83%
    05:00 -9°C° 0 mm 1 mps 643 mmHg 81%
    06:00 -8°C° 0 mm 1 mps 643 mmHg 79%
    07:00 -8°C° 0 mm 1 mps 644 mmHg 77%
    08:00 -6°C° 0 mm 1 mps 644 mmHg 73%
    09:00 -3°C° 0 mm 1 mps 644 mmHg 69%
    10:00 0°C° 0 mm 1 mps 645 mmHg 65%
    11:00 +1°C° 0 mm 1 mps 645 mmHg 65%
    12:00 +2°C° 0 mm 1 mps 645 mmHg 65%
    13:00 +3°C° 0 mm 1 mps 645 mmHg 65%
    14:00 +3°C° 0 mm 1 mps 644 mmHg 66%
    15:00 +3°C° 0 mm 1 mps 644 mmHg 67%
    16:00 +3°C° 0 mm 1 mps 644 mmHg 68%
    17:00 +1°C° 0 mm 1 mps 643 mmHg 74%
    18:00 -1°C° 0 mm 1 mps 643 mmHg 79%
    19:00 -3°C° 0 mm 0 mps 642 mmHg 85%
    20:00 -4°C° 0 mm 0 mps 642 mmHg 86%
    21:00 -3°C° 0 mm 1 mps 642 mmHg 87%
    22:00 -4°C° 0 mm 1 mps 642 mmHg 88%
    23:00 -4°C° 0 mm 1 mps 642 mmHg 88%

    2 Abril, Jueves

    Tiempo Temperatura Precipitaciones Viento Presión Humedad
    00:00 -4°C° 0 mm 1 mps 642 mmHg 89%
    01:00 -6°C° 0 mm 1 mps 642 mmHg 89%
    02:00 -6°C° 0 mm 1 mps 641 mmHg 90%
    03:00 -6°C° 0 mm 1 mps 641 mmHg 90%
    04:00 -6°C° 0 mm 0 mps 641 mmHg 90%
    05:00 -6°C° 0 mm 0 mps 641 mmHg 89%
    06:00 -6°C° 0 mm 0 mps 641 mmHg 88%
    07:00 -5°C° 0 mm 0 mps 641 mmHg 87%
    08:00 -3°C° 0 mm 0 mps 641 mmHg 83%
    09:00 0°C° 0 mm 1 mps 642 mmHg 79%
    10:00 +2°C° 0 mm 1 mps 642 mmHg 76%
    11:00 +2°C° 0 mm 1 mps 642 mmHg 74%
    12:00 +3°C° 0 mm 1 mps 642 mmHg 72%
    13:00 +4°C° 0 mm 1 mps 642 mmHg 70%
    14:00 +4°C° 0 mm 1 mps 642 mmHg 69%
    15:00 +4°C° 0 mm 1 mps 642 mmHg 69%
    16:00 +4°C° 0 mm 1 mps 642 mmHg 68%
    17:00 +2°C° 0 mm 1 mps 641 mmHg 74%
    18:00 +1°C° 0 mm 1 mps 641 mmHg 80%
    19:00 -1°C° 0 mm 1 mps 641 mmHg 86%
    20:00 -2°C° 0 mm 1 mps 641 mmHg 87%
    21:00 -2°C° 0 mm 1 mps 641 mmHg 88%
    22:00 -3°C° 0 mm 1 mps 641 mmHg 89%
    23:00 -3°C° 0 mm 1 mps 641 mmHg 89%
    Mostrar más